Regional Weather Roundup
Issued by NWS Spokane, WA

Home | Current Version | Previous Version | Text Only | Print | Product List | Glossary On
Versions: 1 2 3 4 5 6 7 8 9 10 11 12 13 14 15 16 17 18 19 20 21 22 23 24 25 26 27 28 29 30 31 32 33 34 35 36 37 38 39 40 41 42 43 44 45 46 47 48 49 50
000
NZUS01 KOTX 070210
RWROTX
EASTERN WASHINGTON/NORTHERN IDAHO ROUNDUP
NATIONAL WEATHER SERVICE, SPOKANE WA
600 PM PST FRI MAR 06 2015

Note: "fair" indicated few or no clouds below 12,000 feet with no
significant weather and/or obstructions to visibility.

...NORTHEAST WASHINGTON AND NORTHERN IDAHO PANHANDLE...

CITY           SKY/WX    TMP DP  RH WIND       PRES   REMARKS
SPOKANE INTL   MOCLDY    51  29  42 SW6       30.30S
SPOKANE DOWNTO MOCLDY    53  28  38 CALM      30.30S
COEUR D ALENE  MOCLDY    50  27  40 CALM      30.29R
DEER PARK      MOCLDY    48  31  51 CALM      30.30S
SANDPOINT      MOCLDY    43  30  61 E3        30.30S
BONNERS FERRY  FAIR      45  28  53 N6        30.28R

...SOUTHEAST WASHINGTON AND SOUTHERN IDAHO PANHANDLE...

CITY           SKY/WX    TMP DP  RH WIND       PRES   REMARKS
WALLA WALLA    PTCLDY    58  32  37 CALM      30.29S
PULLMAN/MOSCOW MOCLDY    48  32  53 CALM      30.33S
LEWISTON       MOCLDY    54  30  40 CALM      30.31S
LOWELL           N/A     41  33  73 CALM      30.33R

...COLUMBIA BASIN...

CITY           SKY/WX    TMP DP  RH WIND       PRES   REMARKS
EPHRATA        PTCLDY    51  34  52 CALM      30.28F
MOSES LAKE     PTCLDY    53  30  41 W3        30.29F
TRI CITIES     PTCLDY    53  36  52 NW3       30.29S
HERMISTON      PTCLDY    54  33  45 CALM      30.27F
PENDLETON      PTCLDY    58  28  32 CALM      30.28F

...EAST SLOPES CASCADES...

CITY           SKY/WX    TMP DP  RH WIND       PRES   REMARKS
THE DALLES     MOCLDY    59  36  42 CALM      30.26F
YAKIMA         PTCLDY    56  33  42 CALM      30.29S
ELLENSBURG     PTCLDY    55  36  48 E6        30.27S
WENATCHEE      PTCLDY    54  33  45 E7        30.28S
OMAK           MOCLDY    49  31  49 CALM      30.30F

...SOUTHERN BRITISH COLUMBIA...

CITY           SKY/WX    TMP DP  RH WIND       PRES   REMARKS
PENTICTON      MOCLDY    41  30  65 N6        30.33S

...WESTERN MONTANA...

CITY           SKY/WX    TMP DP  RH WIND       PRES   REMARKS
MISSOULA       CLOUDY    50  21  32 N6        30.28F

...NEIGHBORING CITIES...

CITY           SKY/WX    TMP DP  RH WIND       PRES   REMARKS
SEATTLE        MOCLDY    53  35  50 N6        30.35F
CALGARY        PTCLDY    37  18  44 E3        30.17R



USA.gov is the U.S. government's official web portal to all federal, state and local government web resources and services.